contact:dominique.lefevre@mio.osupytheas.fr, maurice.libes@osupytheas.fr, didier.mallarino@osupytheas.fr
Project:EMSO http://www.emso-fr.org/EMSO-France
Depth: 2436.0 m
Title:EMSO Ligure Ouest : Data MII capteur MICROCAT
DateTime_Computer,Latitude,Longitude,Temperature,Conductivity,Pressure,DateTime_Instrument
DateTime_Computer,Latitude,Longitude,degC,S m-1,dbar,DateTime_Instrument
2021-02-28T00:00:11Z,42.805,6.029,13.2997,4.59997,2470.03,2021-2-28T02:01:15Z
2021-02-28T00:03:14Z,42.805,6.029,13.2990,4.59990,2469.993,2021-2-28T02:04:19Z
2021-02-28T00:06:17Z,42.805,6.029,13.2985,4.59988,2470.03,2021-2-28T02:07:22Z
2021-02-28T00:09:20Z,42.805,6.029,13.2987,4.59990,2470.04,2021-2-28T02:10:25Z
2021-02-28T00:12:23Z,42.805,6.029,13.2984,4.59988,2470.003,2021-2-28T02:13:28Z
2021-02-28T00:15:26Z,42.805,6.029,13.2984,4.59988,2469.993,2021-2-28T02:16:31Z
2021-02-28T00:18:29Z,42.805,6.029,13.2988,4.59991,2469.993,2021-2-28T02:19:34Z
2021-02-28T00:21:32Z,42.805,6.029,13.2986,4.59990,2470.003,2021-2-28T02:22:37Z
2021-02-28T00:24:36Z,42.805,6.029,13.2990,4.59989,2469.993,2021-2-28T02:25:40Z
2021-02-28T00:27:39Z,42.805,6.029,13.2983,4.59987,2469.993,2021-2-28T02:28:44Z
2021-02-28T00:30:42Z,42.805,6.029,13.2986,4.59988,2469.993,2021-2-28T02:31:47Z
2021-02-28T00:33:45Z,42.805,6.029,13.2988,4.59988,2470.017,2021-2-28T02:34:50Z
2021-02-28T00:36:48Z,42.805,6.029,13.2982,4.59988,2470.007,2021-2-28T02:37:53Z
2021-02-28T00:39:51Z,42.805,6.029,13.2988,4.59987,2469.984,2021-2-28T02:40:56Z
2021-02-28T00:42:54Z,42.805,6.029,13.2986,4.59988,2470.007,2021-2-28T02:43:59Z
2021-02-28T00:45:57Z,42.805,6.029,13.2987,4.59988,2469.947,2021-2-28T02:47:02Z
2021-02-28T00:49:01Z,42.805,6.029,13.2984,4.59988,2470.007,2021-2-28T02:50:05Z
2021-02-28T00:52:04Z,42.805,6.029,13.2986,4.59988,2470.007,2021-2-28T02:53:09Z
2021-02-28T00:55:07Z,42.805,6.029,13.2988,4.59988,2469.993,2021-2-28T02:56:12Z
2021-02-28T00:58:10Z,42.805,6.029,13.2990,4.59988,2469.947,2021-2-28T02:59:15Z
2021-02-28T01:01:13Z,42.805,6.029,13.2985,4.59989,2469.947,2021-2-28T03:02:18Z
2021-02-28T01:04:16Z,42.805,6.029,13.2985,4.59989,2469.984,2021-2-28T03:05:21Z
2021-02-28T01:07:19Z,42.805,6.029,13.2986,4.59989,2469.993,2021-2-28T03:08:24Z
2021-02-28T01:10:22Z,42.805,6.029,13.2984,4.59989,2469.96,2021-2-28T03:11:27Z
2021-02-28T01:13:26Z,42.805,6.029,13.2989,4.59989,2469.97,2021-2-28T03:14:30Z
2021-02-28T01:16:29Z,42.805,6.029,13.2991,4.59991,2469.984,2021-2-28T03:17:34Z
2021-02-28T01:19:32Z,42.805,6.029,13.2988,4.59989,2469.984,2021-2-28T03:20:37Z
2021-02-28T01:22:35Z,42.805,6.029,13.2991,4.59989,2469.97,2021-2-28T03:23:40Z
2021-02-28T01:25:38Z,42.805,6.029,13.2986,4.59989,2469.97,2021-2-28T03:26:43Z
2021-02-28T01:28:41Z,42.805,6.029,13.2989,4.59989,2469.984,2021-2-28T03:29:46Z
2021-02-28T01:31:44Z,42.805,6.029,13.2986,4.59989,2470.007,2021-2-28T03:32:49Z
2021-02-28T01:34:47Z,42.805,6.029,13.2986,4.59989,2469.984,2021-2-28T03:35:52Z
2021-02-28T01:37:51Z,42.805,6.029,13.2986,4.59989,2469.947,2021-2-28T03:38:55Z
2021-02-28T01:40:54Z,42.805,6.029,13.2987,4.59989,2469.984,2021-2-28T03:41:59Z
2021-02-28T01:43:57Z,42.805,6.029,13.2990,4.59989,2469.947,2021-2-28T03:45:02Z
2021-02-28T01:47:00Z,42.805,6.029,13.2990,4.59989,2469.993,2021-2-28T03:48:05Z
2021-02-28T01:50:03Z,42.805,6.029,13.2983,4.59989,2469.97,2021-2-28T03:51:08Z
2021-02-28T01:53:06Z,42.805,6.029,13.2991,4.59991,2469.97,2021-2-28T03:54:11Z
2021-02-28T01:56:09Z,42.805,6.029,13.2992,4.59991,2469.96,2021-2-28T03:57:14Z
2021-02-28T01:59:12Z,42.805,6.029,13.2984,4.59991,2469.984,2021-2-28T04:00:17Z
2021-02-28T02:02:16Z,42.805,6.029,13.2989,4.59989,2469.947,2021-2-28T04:03:20Z
2021-02-28T02:05:19Z,42.805,6.029,13.2990,4.59989,2469.97,2021-2-28T04:06:24Z
2021-02-28T02:08:22Z,42.805,6.029,13.2984,4.59990,2469.97,2021-2-28T04:09:27Z
2021-02-28T02:11:25Z,42.805,6.029,13.2990,4.59991,2469.984,2021-2-28T04:12:30Z
2021-02-28T02:14:28Z,42.805,6.029,13.2992,4.59990,2469.947,2021-2-28T04:15:33Z
2021-02-28T02:17:31Z,42.805,6.029,13.2990,4.59991,2469.984,2021-2-28T04:18:36Z
2021-02-28T02:20:34Z,42.805,6.029,13.2986,4.59991,2469.97,2021-2-28T04:21:39Z
2021-02-28T02:23:37Z,42.805,6.029,13.2986,4.59990,2470.007,2021-2-28T04:24:42Z
2021-02-28T02:26:40Z,42.805,6.029,13.2989,4.59991,2469.947,2021-2-28T04:27:45Z
2021-02-28T02:29:44Z,42.805,6.029,13.2989,4.59990,2469.96,2021-2-28T04:30:49Z
2021-02-28T02:32:47Z,42.805,6.029,13.2986,4.59989,2469.923,2021-2-28T04:33:52Z
2021-02-28T02:35:50Z,42.805,6.029,13.2987,4.59989,2469.947,2021-2-28T04:36:55Z
2021-02-28T02:38:53Z,42.805,6.029,13.2986,4.59990,2469.984,2021-2-28T04:39:58Z
2021-02-28T02:41:56Z,42.805,6.029,13.2990,4.59989,2469.97,2021-2-28T04:43:01Z
2021-02-28T02:44:59Z,42.805,6.029,13.2987,4.59990,2469.97,2021-2-28T04:46:04Z
2021-02-28T02:48:02Z,42.805,6.029,13.2989,4.59990,2469.97,2021-2-28T04:49:07Z
2021-02-28T02:51:05Z,42.805,6.029,13.2990,4.59991,2470.007,2021-2-28T04:52:10Z
2021-02-28T02:54:09Z,42.805,6.029,13.2990,4.59991,2469.97,2021-2-28T04:55:14Z
2021-02-28T02:57:12Z,42.805,6.029,13.2988,4.59990,2469.97,2021-2-28T04:58:17Z
2021-02-28T03:00:15Z,42.805,6.029,13.2991,4.59990,2469.97,2021-2-28T05:01:20Z
2021-02-28T03:03:18Z,42.805,6.029,13.2993,4.59991,2469.984,2021-2-28T05:04:23Z
2021-02-28T03:06:21Z,42.805,6.029,13.2986,4.59991,2469.993,2021-2-28T05:07:26Z
2021-02-28T03:09:24Z,42.805,6.029,13.2989,4.59992,2469.97,2021-2-28T05:10:29Z
2021-02-28T03:12:27Z,42.805,6.029,13.2988,4.59991,2469.97,2021-2-28T05:13:32Z
2021-02-28T03:15:30Z,42.805,6.029,13.2990,4.59991,2469.993,2021-2-28T05:16:35Z
2021-02-28T03:18:34Z,42.805,6.029,13.2992,4.59992,2469.97,2021-2-28T05:19:39Z
2021-02-28T03:21:37Z,42.805,6.029,13.2993,4.59993,2469.993,2021-2-28T05:22:42Z
2021-02-28T03:24:40Z,42.805,6.029,13.2990,4.59992,2469.947,2021-2-28T05:25:45Z
2021-02-28T03:27:43Z,42.805,6.029,13.2990,4.59992,2470.017,2021-2-28T05:28:48Z
2021-02-28T03:30:46Z,42.805,6.029,13.2993,4.59993,2470.007,2021-2-28T05:31:51Z
2021-02-28T03:33:49Z,42.805,6.029,13.2989,4.59992,2469.984,2021-2-28T05:34:54Z
2021-02-28T03:36:52Z,42.805,6.029,13.2990,4.59993,2469.993,2021-2-28T05:37:57Z
2021-02-28T03:39:55Z,42.805,6.029,13.2990,4.59993,2470.007,2021-2-28T05:41:00Z
2021-02-28T03:42:59Z,42.805,6.029,13.2991,4.59993,2469.97,2021-2-28T05:44:04Z
2021-02-28T03:46:02Z,42.805,6.029,13.2993,4.59994,2469.97,2021-2-28T05:47:07Z
2021-02-28T03:49:05Z,42.805,6.029,13.2990,4.59994,2469.993,2021-2-28T05:50:10Z
2021-02-28T03:52:08Z,42.805,6.029,13.2993,4.59993,2470.017,2021-2-28T05:53:13Z
2021-02-28T03:55:11Z,42.805,6.029,13.2996,4.59994,2469.979,2021-2-28T05:56:16Z
2021-02-28T03:58:14Z,42.805,6.029,13.2990,4.59994,2470.017,2021-2-28T05:59:19Z
2021-02-28T04:01:17Z,42.805,6.029,13.2990,4.59994,2470.017,2021-2-28T06:02:22Z
2021-02-28T04:04:20Z,42.805,6.029,13.2991,4.59994,2470.03,2021-2-28T06:05:25Z
2021-02-28T04:07:24Z,42.805,6.029,13.2990,4.59994,2470.04,2021-2-28T06:08:28Z
2021-02-28T04:10:27Z,42.805,6.029,13.2988,4.59994,2470.017,2021-2-28T06:11:32Z
2021-02-28T04:13:30Z,42.805,6.029,13.2993,4.59994,2470.077,2021-2-28T06:14:35Z
2021-02-28T04:16:33Z,42.805,6.029,13.2993,4.59994,2470.03,2021-2-28T06:17:38Z
2021-02-28T04:19:36Z,42.805,6.029,13.2989,4.59994,2470.04,2021-2-28T06:20:41Z
2021-02-28T04:22:39Z,42.805,6.029,13.2991,4.59994,2470.03,2021-2-28T06:23:44Z
2021-02-28T04:25:42Z,42.805,6.029,13.2989,4.59996,2470.04,2021-2-28T06:26:47Z
2021-02-28T04:28:45Z,42.805,6.029,13.2995,4.59997,2470.053,2021-2-28T06:29:50Z
2021-02-28T04:31:49Z,42.805,6.029,13.2991,4.59997,2470.04,2021-2-28T06:32:53Z
2021-02-28T04:34:52Z,42.805,6.029,13.2990,4.59994,2470.04,2021-2-28T06:35:57Z
2021-02-28T04:37:55Z,42.805,6.029,13.2990,4.59997,2470.063,2021-2-28T06:39:00Z
2021-02-28T04:40:58Z,42.805,6.029,13.2993,4.59996,2470.053,2021-2-28T06:42:03Z
2021-02-28T04:44:01Z,42.805,6.029,13.2996,4.60003,2470.087,2021-2-28T06:45:06Z
2021-02-28T04:47:04Z,42.805,6.029,13.2990,4.59995,2470.063,2021-2-28T06:48:09Z
2021-02-28T04:50:07Z,42.805,6.029,13.2988,4.59995,2470.063,2021-2-28T06:51:12Z
2021-02-28T04:53:10Z,42.805,6.029,13.2991,4.59996,2470.063,2021-2-28T06:54:15Z
2021-02-28T04:56:14Z,42.805,6.029,13.2998,4.60003,2470.11,2021-2-28T06:57:18Z
2021-02-28T04:59:17Z,42.805,6.029,13.2996,4.59996,2470.063,2021-2-28T07:00:22Z
2021-02-28T05:02:20Z,42.805,6.029,13.3003,4.60007,2470.087,2021-2-28T07:03:25Z
2021-02-28T05:05:23Z,42.805,6.029,13.2996,4.60003,2470.077,2021-2-28T07:06:28Z
2021-02-28T05:08:26Z,42.805,6.029,13.2991,4.59996,2470.124,2021-2-28T07:09:31Z
2021-02-28T05:11:29Z,42.805,6.029,13.2998,4.60002,2470.063,2021-2-28T07:12:34Z
2021-02-28T05:14:32Z,42.805,6.029,13.2996,4.59996,2470.133,2021-2-28T07:15:37Z
2021-02-28T05:17:35Z,42.805,6.029,13.2995,4.60001,2470.11,2021-2-28T07:18:40Z
2021-02-28T05:20:39Z,42.805,6.029,13.2995,4.59996,2470.147,2021-2-28T07:21:43Z
2021-02-28T05:23:42Z,42.805,6.029,13.2993,4.59996,2470.124,2021-2-28T07:24:47Z
2021-02-28T05:26:45Z,42.805,6.029,13.2996,4.59997,2470.124,2021-2-28T07:27:50Z
2021-02-28T05:29:48Z,42.805,6.029,13.2994,4.59997,2470.124,2021-2-28T07:30:53Z
2021-02-28T05:35:54Z,42.805,6.029,13.2993,4.59996,2470.156,2021-2-28T07:36:59Z
2021-02-28T05:38:57Z,42.805,6.029,13.2991,4.59996,2470.147,2021-2-28T07:40:02Z
2021-02-28T05:42:00Z,42.805,6.029,13.2994,4.59999,2470.156,2021-2-28T07:43:05Z
2021-02-28T05:45:03Z,42.805,6.029,13.3000,4.60003,2470.133,2021-2-28T07:46:08Z
2021-02-28T05:48:06Z,42.805,6.029,13.2994,4.59997,2470.18,2021-2-28T07:49:11Z
2021-02-28T05:51:10Z,42.805,6.029,13.2996,4.59997,2470.156,2021-2-28T07:52:15Z
2021-02-28T05:54:13Z,42.805,6.029,13.3000,4.59999,2470.156,2021-2-28T07:55:18Z
2021-02-28T05:57:16Z,42.805,6.029,13.3000,4.59999,2470.18,2021-2-28T07:58:21Z
2021-02-28T06:00:19Z,42.805,6.029,13.2998,4.60007,2470.156,2021-2-28T08:01:24Z
2021-02-28T06:03:22Z,42.805,6.029,13.3004,4.60006,2470.156,2021-2-28T08:04:27Z
2021-02-28T06:06:25Z,42.805,6.029,13.3005,4.60007,2470.156,2021-2-28T08:07:30Z
2021-02-28T06:09:28Z,42.805,6.029,13.2998,4.60010,2470.156,2021-2-28T08:10:33Z
2021-02-28T06:12:31Z,42.805,6.029,13.2997,4.60001,2470.217,2021-2-28T08:13:36Z
2021-02-28T06:15:35Z,42.805,6.029,13.3004,4.60011,2470.156,2021-2-28T08:16:40Z
2021-02-28T06:18:38Z,42.805,6.029,13.3003,4.60011,2470.217,2021-2-28T08:19:43Z
2021-02-28T06:21:41Z,42.805,6.029,13.3002,4.60017,2470.194,2021-2-28T08:22:46Z
2021-02-28T06:24:44Z,42.805,6.029,13.2996,4.60016,2470.217,2021-2-28T08:25:49Z
2021-02-28T06:27:47Z,42.805,6.029,13.3003,4.60022,2470.203,2021-2-28T08:28:52Z
2021-02-28T06:30:50Z,42.805,6.029,13.3002,4.60014,2470.156,2021-2-28T08:31:55Z
2021-02-28T06:33:53Z,42.805,6.029,13.3003,4.60011,2470.189,2021-2-28T08:34:58Z
2021-02-28T06:36:56Z,42.805,6.029,13.2998,4.60011,2470.217,2021-2-28T08:38:01Z
2021-02-28T06:40:00Z,42.805,6.029,13.2999,4.60017,2470.217,2021-2-28T08:41:04Z
2021-02-28T06:43:03Z,42.805,6.029,13.2998,4.60013,2470.227,2021-2-28T08:44:08Z
2021-02-28T06:46:06Z,42.805,6.029,13.3001,4.60009,2470.203,2021-2-28T08:47:11Z
2021-02-28T06:49:09Z,42.805,6.029,13.3002,4.60016,2470.217,2021-2-28T08:50:14Z
2021-02-28T06:52:12Z,42.805,6.029,13.2996,4.60009,2470.217,2021-2-28T08:53:17Z
2021-02-28T06:55:15Z,42.805,6.029,13.2997,4.60008,2470.227,2021-2-28T08:56:20Z
2021-02-28T06:58:18Z,42.805,6.029,13.2998,4.60009,2470.227,2021-2-28T08:59:23Z
2021-02-28T07:01:21Z,42.805,6.029,13.2998,4.60015,2470.24,2021-2-28T09:02:26Z
2021-02-28T07:04:25Z,42.805,6.029,13.3002,4.60008,2470.24,2021-2-28T09:05:29Z
2021-02-28T07:07:28Z,42.805,6.029,13.3000,4.60011,2470.24,2021-2-28T09:08:33Z
2021-02-28T07:10:31Z,42.805,6.029,13.3000,4.60013,2470.236,2021-2-28T09:11:36Z
2021-02-28T07:13:34Z,42.805,6.029,13.3001,4.60015,2470.24,2021-2-28T09:14:39Z
2021-02-28T07:16:37Z,42.805,6.029,13.2998,4.60009,2470.264,2021-2-28T09:17:42Z
2021-02-28T07:19:40Z,42.805,6.029,13.2998,4.60015,2470.25,2021-2-28T09:20:45Z
2021-02-28T07:22:43Z,42.805,6.029,13.3000,4.60009,2470.264,2021-2-28T09:23:48Z
2021-02-28T07:25:46Z,42.805,6.029,13.2998,4.60013,2470.25,2021-2-28T09:26:51Z
2021-02-28T07:28:50Z,42.805,6.029,13.3001,4.60011,2470.264,2021-2-28T09:29:54Z
2021-02-28T07:31:53Z,42.805,6.029,13.2999,4.60011,2470.287,2021-2-28T09:32:58Z
2021-02-28T07:34:56Z,42.805,6.029,13.3000,4.60015,2470.227,2021-2-28T09:36:01Z
2021-02-28T07:37:59Z,42.805,6.029,13.3001,4.60017,2470.227,2021-2-28T09:39:04Z
2021-02-28T07:41:02Z,42.805,6.029,13.3002,4.60013,2470.273,2021-2-28T09:42:07Z
2021-02-28T07:44:05Z,42.805,6.029,13.3001,4.60014,2470.25,2021-2-28T09:45:10Z
2021-02-28T07:47:08Z,42.805,6.029,13.3002,4.60015,2470.264,2021-2-28T09:48:13Z
2021-02-28T07:50:11Z,42.805,6.029,13.3004,4.60014,2470.217,2021-2-28T09:51:16Z
2021-02-28T07:53:15Z,42.805,6.029,13.2998,4.60016,2470.273,2021-2-28T09:54:19Z
2021-02-28T07:56:18Z,42.805,6.029,13.3000,4.60016,2470.273,2021-2-28T09:57:23Z
2021-02-28T07:59:21Z,42.805,6.029,13.2998,4.60014,2470.287,2021-2-28T10:00:26Z
2021-02-28T08:02:24Z,42.805,6.029,13.2998,4.60008,2470.264,2021-2-28T10:03:29Z
2021-02-28T08:05:27Z,42.805,6.029,13.2999,4.60009,2470.31,2021-2-28T10:06:32Z
2021-02-28T08:08:30Z,42.805,6.029,13.3003,4.60008,2470.227,2021-2-28T10:09:35Z
2021-02-28T08:11:33Z,42.805,6.029,13.2998,4.60008,2470.264,2021-2-28T10:12:38Z
2021-02-28T08:14:36Z,42.805,6.029,13.3000,4.60009,2470.25,2021-2-28T10:15:41Z
2021-02-28T08:17:40Z,42.805,6.029,13.2999,4.60008,2470.273,2021-2-28T10:18:44Z
2021-02-28T08:20:43Z,42.805,6.029,13.3002,4.60010,2470.24,2021-2-28T10:21:48Z
2021-02-28T08:23:46Z,42.805,6.029,13.3000,4.60006,2470.236,2021-2-28T10:24:51Z
2021-02-28T08:26:49Z,42.805,6.029,13.2997,4.60011,2470.227,2021-2-28T10:27:54Z
2021-02-28T08:29:52Z,42.805,6.029,13.2998,4.60006,2470.236,2021-2-28T10:30:57Z
2021-02-28T08:32:55Z,42.805,6.029,13.2997,4.60005,2470.24,2021-2-28T10:34:00Z
2021-02-28T08:35:58Z,42.805,6.029,13.2993,4.60007,2470.273,2021-2-28T10:37:03Z
2021-02-28T08:39:01Z,42.805,6.029,13.2996,4.60007,2470.273,2021-2-28T10:40:06Z
2021-02-28T08:42:05Z,42.805,6.029,13.2998,4.60005,2470.227,2021-2-28T10:43:10Z
2021-02-28T08:45:08Z,42.805,6.029,13.2997,4.60004,2470.25,2021-2-28T10:46:13Z
2021-02-28T08:48:11Z,42.805,6.029,13.3000,4.60007,2470.25,2021-2-28T10:49:16Z
2021-02-28T08:51:14Z,42.805,6.029,13.2998,4.60005,2470.25,2021-2-28T10:52:19Z
2021-02-28T08:54:17Z,42.805,6.029,13.2997,4.60004,2470.264,2021-2-28T10:55:22Z
2021-02-28T08:57:20Z,42.805,6.029,13.2998,4.60008,2470.24,2021-2-28T10:58:25Z
2021-02-28T09:00:23Z,42.805,6.029,13.2995,4.60007,2470.25,2021-2-28T11:01:28Z
2021-02-28T09:03:26Z,42.805,6.029,13.3000,4.60009,2470.287,2021-2-28T11:04:31Z
2021-02-28T09:06:30Z,42.805,6.029,13.2996,4.60008,2470.227,2021-2-28T11:07:35Z
2021-02-28T09:09:33Z,42.805,6.029,13.2998,4.60011,2470.203,2021-2-28T11:10:38Z
2021-02-28T09:12:36Z,42.805,6.029,13.2999,4.60003,2470.25,2021-2-28T11:13:41Z
2021-02-28T09:15:39Z,42.805,6.029,13.2998,4.60005,2470.227,2021-2-28T11:16:44Z
2021-02-28T09:18:42Z,42.805,6.029,13.2994,4.60009,2470.25,2021-2-28T11:19:47Z
2021-02-28T09:21:45Z,42.805,6.029,13.3004,4.60009,2470.227,2021-2-28T11:22:50Z
2021-02-28T09:24:48Z,42.805,6.029,13.3003,4.60016,2470.227,2021-2-28T11:25:53Z
2021-02-28T09:27:52Z,42.805,6.029,13.2999,4.60009,2470.25,2021-2-28T11:28:56Z
2021-02-28T09:30:55Z,42.805,6.029,13.2998,4.60016,2470.213,2021-2-28T11:32:00Z
2021-02-28T09:33:58Z,42.805,6.029,13.3000,4.60007,2470.24,2021-2-28T11:35:03Z
2021-02-28T09:37:01Z,42.805,6.029,13.2995,4.60006,2470.25,2021-2-28T11:38:06Z
2021-02-28T09:40:04Z,42.805,6.029,13.2996,4.60006,2470.264,2021-2-28T11:41:09Z
2021-02-28T09:43:07Z,42.805,6.029,13.2998,4.60008,2470.203,2021-2-28T11:44:12Z
2021-02-28T09:46:10Z,42.805,6.029,13.3002,4.60011,2470.24,2021-2-28T11:47:15Z
2021-02-28T09:49:13Z,42.805,6.029,13.2999,4.60009,2470.24,2021-2-28T11:50:18Z
2021-02-28T09:52:17Z,42.805,6.029,13.3000,4.60009,2470.24,2021-2-28T11:53:21Z
2021-02-28T09:55:20Z,42.805,6.029,13.2996,4.60004,2470.227,2021-2-28T11:56:25Z
2021-02-28T09:58:23Z,42.805,6.029,13.2995,4.60006,2470.24,2021-2-28T11:59:28Z
2021-02-28T10:01:26Z,42.805,6.029,13.2996,4.60009,2470.217,2021-2-28T12:02:31Z
2021-02-28T10:04:29Z,42.805,6.029,13.2997,4.60009,2470.203,2021-2-28T12:05:34Z
2021-02-28T10:07:32Z,42.805,6.029,13.2996,4.60007,2470.24,2021-2-28T12:08:37Z
2021-02-28T10:10:35Z,42.805,6.029,13.2998,4.60006,2470.217,2021-2-28T12:11:40Z
2021-02-28T10:13:38Z,42.805,6.029,13.2996,4.60003,2470.217,2021-2-28T12:14:43Z
2021-02-28T10:16:42Z,42.805,6.029,13.2996,4.60003,2470.25,2021-2-28T12:17:46Z
2021-02-28T10:19:45Z,42.805,6.029,13.2994,4.60003,2470.203,2021-2-28T12:20:50Z
2021-02-28T10:22:48Z,42.805,6.029,13.2994,4.60005,2470.217,2021-2-28T12:23:53Z
2021-02-28T10:25:51Z,42.805,6.029,13.2996,4.60006,2470.203,2021-2-28T12:26:56Z
2021-02-28T10:28:54Z,42.805,6.029,13.2994,4.60004,2470.217,2021-2-28T12:29:59Z
2021-02-28T10:31:57Z,42.805,6.029,13.2991,4.60002,2470.24,2021-2-28T12:33:02Z
2021-02-28T10:35:00Z,42.805,6.029,13.2993,4.60003,2470.194,2021-2-28T12:36:05Z
2021-02-28T10:38:03Z,42.805,6.029,13.2996,4.60004,2470.194,2021-2-28T12:39:08Z
2021-02-28T10:41:07Z,42.805,6.029,13.2991,4.60003,2470.18,2021-2-28T12:42:12Z
2021-02-28T10:44:10Z,42.805,6.029,13.2993,4.60002,2470.171,2021-2-28T12:45:15Z
2021-02-28T10:47:13Z,42.805,6.029,13.3001,4.60004,2470.203,2021-2-28T12:48:18Z
2021-02-28T10:50:16Z,42.805,6.029,13.2993,4.60002,2470.194,2021-2-28T12:51:21Z
2021-02-28T10:53:19Z,42.805,6.029,13.2994,4.60002,2470.18,2021-2-28T12:54:24Z
2021-02-28T10:56:22Z,42.805,6.029,13.2989,4.60001,2470.217,2021-2-28T12:57:27Z
2021-02-28T10:59:25Z,42.805,6.029,13.2995,4.60003,2470.18,2021-2-28T13:00:30Z
2021-02-28T11:02:29Z,42.805,6.029,13.2997,4.60003,2470.156,2021-2-28T13:03:33Z
2021-02-28T11:05:32Z,42.805,6.029,13.2993,4.60001,2470.18,2021-2-28T13:06:37Z
2021-02-28T11:08:35Z,42.805,6.029,13.2992,4.60007,2470.18,2021-2-28T13:09:40Z
2021-02-28T11:11:38Z,42.805,6.029,13.2996,4.60003,2470.156,2021-2-28T13:12:43Z
2021-02-28T11:14:41Z,42.805,6.029,13.2996,4.60001,2470.18,2021-2-28T13:15:46Z
2021-02-28T11:17:44Z,42.805,6.029,13.2994,4.60003,2470.171,2021-2-28T13:18:49Z
2021-02-28T11:20:47Z,42.805,6.029,13.2993,4.60000,2470.156,2021-2-28T13:21:52Z
2021-02-28T11:23:50Z,42.805,6.029,13.2996,4.60001,2470.124,2021-2-28T13:24:55Z
2021-02-28T11:26:54Z,42.805,6.029,13.2997,4.60001,2470.133,2021-2-28T13:27:58Z
2021-02-28T11:29:57Z,42.805,6.029,13.2990,4.60001,2470.147,2021-2-28T13:31:02Z
2021-02-28T11:33:00Z,42.805,6.029,13.2993,4.60006,2470.133,2021-2-28T13:34:05Z
2021-02-28T11:36:03Z,42.805,6.029,13.2995,4.60001,2470.171,2021-2-28T13:37:08Z
2021-02-28T11:39:06Z,42.805,6.029,13.2993,4.60001,2470.11,2021-2-28T13:40:11Z
2021-02-28T11:42:09Z,42.805,6.029,13.2991,4.60001,2470.11,2021-2-28T13:43:14Z
2021-02-28T11:45:12Z,42.805,6.029,13.2992,4.59999,2470.087,2021-2-28T13:46:17Z
2021-02-28T11:48:15Z,42.805,6.029,13.2992,4.60000,2470.147,2021-2-28T13:49:20Z
2021-02-28T11:51:19Z,42.805,6.029,13.2995,4.59999,2470.133,2021-2-28T13:52:23Z
2021-02-28T11:54:22Z,42.805,6.029,13.2991,4.59999,2470.171,2021-2-28T13:55:27Z
2021-02-28T11:57:25Z,42.805,6.029,13.2991,4.59999,2470.124,2021-2-28T13:58:30Z
2021-02-28T12:00:28Z,42.805,6.029,13.2991,4.60000,2470.11,2021-2-28T14:01:33Z
2021-02-28T12:03:31Z,42.805,6.029,13.2995,4.59996,2470.147,2021-2-28T14:04:36Z
2021-02-28T12:06:34Z,42.805,6.029,13.2993,4.59999,2470.087,2021-2-28T14:07:39Z
2021-02-28T12:09:37Z,42.805,6.029,13.2993,4.59999,2470.124,2021-2-28T14:10:42Z
2021-02-28T12:12:40Z,42.805,6.029,13.2991,4.59998,2470.1,2021-2-28T14:13:45Z
2021-02-28T12:15:44Z,42.805,6.029,13.2990,4.59999,2470.11,2021-2-28T14:16:49Z
2021-02-28T12:18:47Z,42.805,6.029,13.2993,4.59999,2470.11,2021-2-28T14:19:52Z
2021-02-28T12:21:50Z,42.805,6.029,13.2992,4.60001,2470.087,2021-2-28T14:22:55Z
2021-02-28T12:24:53Z,42.805,6.029,13.2997,4.59999,2470.087,2021-2-28T14:25:58Z
2021-02-28T12:27:56Z,42.805,6.029,13.2991,4.60006,2470.077,2021-2-28T14:29:01Z
2021-02-28T12:30:59Z,42.805,6.029,13.2993,4.60000,2470.087,2021-2-28T14:32:04Z
2021-02-28T12:34:02Z,42.805,6.029,13.2993,4.60010,2470.063,2021-2-28T14:35:07Z
2021-02-28T12:37:05Z,42.805,6.029,13.2993,4.59998,2470.063,2021-2-28T14:38:10Z
2021-02-28T12:40:09Z,42.805,6.029,13.2990,4.60000,2470.087,2021-2-28T14:41:14Z
2021-02-28T12:43:12Z,42.805,6.029,13.2994,4.59998,2470.063,2021-2-28T14:44:17Z
2021-02-28T12:46:15Z,42.805,6.029,13.2992,4.59999,2470.063,2021-2-28T14:47:20Z
2021-02-28T12:49:18Z,42.805,6.029,13.2991,4.60004,2470.077,2021-2-28T14:50:23Z
2021-02-28T12:52:21Z,42.805,6.029,13.2993,4.59998,2470.077,2021-2-28T14:53:26Z
2021-02-28T12:55:24Z,42.805,6.029,13.2993,4.59998,2470.077,2021-2-28T14:56:29Z
2021-02-28T12:58:27Z,42.805,6.029,13.2993,4.60002,2470.087,2021-2-28T14:59:32Z
2021-02-28T13:01:30Z,42.805,6.029,13.2990,4.59999,2470.077,2021-2-28T15:02:35Z
2021-02-28T13:04:34Z,42.805,6.029,13.2993,4.59999,2470.063,2021-2-28T15:05:39Z
2021-02-28T13:07:37Z,42.805,6.029,13.2993,4.60001,2470.04,2021-2-28T15:08:42Z
2021-02-28T13:10:40Z,42.805,6.029,13.2991,4.60000,2470.04,2021-2-28T15:11:45Z
2021-02-28T13:13:43Z,42.805,6.029,13.2992,4.59999,2470.063,2021-2-28T15:14:48Z
2021-02-28T13:16:46Z,42.805,6.029,13.2987,4.60001,2470.04,2021-2-28T15:17:51Z
2021-02-28T13:19:49Z,42.805,6.029,13.2993,4.59998,2470.077,2021-2-28T15:20:54Z
2021-02-28T13:22:52Z,42.805,6.029,13.2995,4.59997,2470.063,2021-2-28T15:23:57Z
2021-02-28T13:25:56Z,42.805,6.029,13.2996,4.59999,2470.053,2021-2-28T15:27:00Z
2021-02-28T13:28:59Z,42.805,6.029,13.2993,4.59999,2470.04,2021-2-28T15:30:04Z
2021-02-28T13:32:02Z,42.805,6.029,13.2991,4.59996,2470.04,2021-2-28T15:33:07Z
2021-02-28T13:35:05Z,42.805,6.029,13.2991,4.59997,2470.053,2021-2-28T15:36:10Z
2021-02-28T13:38:08Z,42.805,6.029,13.2990,4.60003,2470.04,2021-2-28T15:39:13Z
2021-02-28T13:41:11Z,42.805,6.029,13.2996,4.59997,2470.053,2021-2-28T15:42:16Z
2021-02-28T13:44:14Z,42.805,6.029,13.2997,4.60009,2470.053,2021-2-28T15:45:19Z
2021-02-28T13:47:17Z,42.805,6.029,13.2990,4.59998,2470.063,2021-2-28T15:48:22Z
2021-02-28T13:50:21Z,42.805,6.029,13.2991,4.59996,2470.017,2021-2-28T15:51:25Z
2021-02-28T13:53:24Z,42.805,6.029,13.2987,4.59996,2470.04,2021-2-28T15:54:29Z
2021-02-28T13:56:27Z,42.805,6.029,13.2989,4.59996,2470.017,2021-2-28T15:57:32Z
2021-02-28T13:59:30Z,42.805,6.029,13.2989,4.59996,2470.03,2021-2-28T16:00:35Z
2021-02-28T14:02:33Z,42.805,6.029,13.2991,4.59996,2470.03,2021-2-28T16:03:38Z
2021-02-28T14:05:36Z,42.805,6.029,13.2991,4.59996,2469.993,2021-2-28T16:06:41Z
2021-02-28T14:08:39Z,42.805,6.029,13.2987,4.59998,2470.053,2021-2-28T16:09:44Z
2021-02-28T14:11:42Z,42.805,6.029,13.2993,4.60001,2470.03,2021-2-28T16:12:47Z
2021-02-28T14:14:46Z,42.805,6.029,13.2987,4.59996,2470.007,2021-2-28T16:15:51Z
2021-02-28T14:17:49Z,42.805,6.029,13.2991,4.59996,2469.984,2021-2-28T16:18:54Z
2021-02-28T14:20:52Z,42.805,6.029,13.2993,4.59996,2469.993,2021-2-28T16:21:57Z
2021-02-28T14:23:55Z,42.805,6.029,13.2993,4.60001,2470.017,2021-2-28T16:25:00Z
2021-02-28T14:26:58Z,42.805,6.029,13.2991,4.59997,2470.007,2021-2-28T16:28:03Z
2021-02-28T14:30:01Z,42.805,6.029,13.2989,4.59996,2470.03,2021-2-28T16:31:06Z
2021-02-28T14:33:04Z,42.805,6.029,13.2991,4.59996,2470.04,2021-2-28T16:34:09Z
2021-02-28T14:36:07Z,42.805,6.029,13.2994,4.59997,2470.017,2021-2-28T16:37:12Z
2021-02-28T14:39:11Z,42.805,6.029,13.2991,4.59996,2469.984,2021-2-28T16:40:16Z
2021-02-28T14:42:14Z,42.805,6.029,13.2991,4.59995,2470.007,2021-2-28T16:43:19Z
2021-02-28T14:45:17Z,42.805,6.029,13.2992,4.59997,2469.97,2021-2-28T16:46:22Z
2021-02-28T14:48:20Z,42.805,6.029,13.2989,4.60000,2469.993,2021-2-28T16:49:25Z
2021-02-28T14:51:23Z,42.805,6.029,13.2992,4.59998,2469.909,2021-2-28T16:52:28Z
2021-02-28T14:54:26Z,42.805,6.029,13.2994,4.59999,2469.97,2021-2-28T16:55:31Z
2021-02-28T14:57:29Z,42.805,6.029,13.2992,4.59996,2469.993,2021-2-28T16:58:34Z
2021-02-28T15:00:33Z,42.805,6.029,13.2996,4.59996,2469.97,2021-2-28T17:01:37Z
2021-02-28T15:03:36Z,42.805,6.029,13.2991,4.60001,2470.017,2021-2-28T17:04:41Z
2021-02-28T15:06:39Z,42.805,6.029,13.2991,4.59999,2470.007,2021-2-28T17:07:44Z
2021-02-28T15:09:42Z,42.805,6.029,13.2990,4.59999,2469.97,2021-2-28T17:10:47Z
2021-02-28T15:12:45Z,42.805,6.029,13.2992,4.60000,2469.993,2021-2-28T17:13:50Z
2021-02-28T15:15:48Z,42.805,6.029,13.2990,4.59998,2469.993,2021-2-28T17:16:53Z